Weather in Gilevo

Russia / Tyumen Oblast     57°36′42″N   67°05′10″E
temp.,
°C
wind,
m/s
gust,
m/s
humid.,
%
clouds,
%
prec.,
mm/h
press.,
hPa
HPBL,
m
15 may, sat
sat1523:00+20wsw39485 0.0 1019151
02:00+18wsw375146 0.0 1019106
05:00+17w38525 0.0 1019147
08:00+24w36405 0.0 1019358
11:00+29w57285 0.0 10181996
14:00+31w57245 0.0 10173248
17:00+31w59215 0.0 10153501
20:00+27wsw61229100 0.0 1014855
16 may, sun
sun1623:00+23wnw4134262 0.2 1014576
02:00+19wnw310599 0.0 1015301
05:00+18w31060100 0.0 1016244
08:00+23wnw37465 0.0 1016475
11:00+28wnw473955 0.0 10151955
14:00+30nw5103311 0.0 10152809
17:00+30nw5102733 0.0 10153134
20:00+25w223691 0.0 101531
17 may, mon
mon1723:00+21wsw343928 0.0 101569
02:00+20w3134385 0.0 1015258
05:00+19wsw311505 0.0 1016185
08:00+25w59372 0.0 1015499
11:00+30w610230 0.0 10152967
14:00+32wnw7111997 0.0 10134363
17:00+29sw4102872 0.0 10121660
20:00+22nne374999 0.1 1013257
18 may, tue
tue1823:00+17s117350 0.8 101413
02:00+17sw377178 0.0 1013141
05:00+18w266631 0.0 1013139
08:00+22w354744 0.0 1013393
11:00+27wnw473424 0.0 10112975
14:00+27nw592896 0.0 10103210
17:00+23nnw6104387 0.0 10121314
20:00+19nnw5105718 1.4 1013657
19 may, wed
wed1923:00+15n410805 1.4 1015625
02:00+14nne488285 0.0 1017743
05:00+12nne4976100 0.1 1019781
08:00+14ne47513 0.0 10221076
11:00+18nne46396 0.0 10221798
14:00+20n4534100 0.0 10221953
17:00+21n453449 0.0 10221831
20:00+16ne2548100 0.0 1023109